Weather past 2 weeks in Malakal, South Sudan

Now
N/A

Sunny.


Feels Like: N/A
Forecast: 74 / 82 °F
Wind: 9 mph from Northwest

Location: Khartoum Airport

Current Time: Aug 3, 2015 at 7:06:38 PM

Latest Report: Aug 3, 2015 at 6:30 PM


Visibility: 10 mi

Pressure: 29.74 "Hg

Humidity: N/A

Dew point: N/A

Location of MalakalLocation

Historic Weather in Malakal — Graph

°F

Malakal temperature yesterday

Maximum temperature yesterday: 100 °F (at 3:00 PM)
Minimum temperature yesterday: 77 °F (at 6:00 AM)
Average temperature yesterday: 89 °F

Past Weeks' High & Low Weather Summary

 TemperatureHumidityPressure
High108 °F (Jul 19, 6:00 PM)79% (Aug 2, 6:00 AM)32.43 "Hg (Aug 2, 6:00 AM)
Low77 °F (Aug 2, 6:00 AM)8% (Jul 28, 4:00 PM)29.68 "Hg (Jul 28, 5:30 PM)
Average94 °F33%29.81 "Hg
* Reported Jul 19 6:00 PM — Aug 3 6:00 PM, Malakal, Weather by CustomWeather, © 2015

Note: Actual official high and low records may vary slightly from our data, if they occured in-between our weather recording intervals... More about our weather records

Advertising

Malakal weather history for previous 24 hours

 ConditionsComfort  
Time TempWeatherWind HumidityBarometerVisibility
6:00 PM
Mon, Aug 3
104 °FSunny.13 mph17%29.74 "Hg10 mi
5:30 PMN/ASunny.7 mphN/A29.77 "Hg10 mi
5:00 PM104 °FSunny.9 mph20%29.77 "Hg10 mi
4:30 PMN/ASunny.6 mphN/A29.77 "Hg10 mi
4:00 PM102 °FSunny.10 mph20%29.77 "Hg10 mi
3:30 PMN/ASunny.10 mphN/A29.80 "Hg10 mi
3:00 PM100 °FSunny.14 mph24%29.80 "Hg10 mi
2:30 PMN/ASunny.13 mphN/A29.80 "Hg10 mi
2:00 PM100 °FSunny.7 mph24%29.83 "Hg10 mi
1:30 PMN/ASunny.15 mphN/A29.83 "Hg10 mi
1:00 PM97 °FSunny.14 mph30%29.86 "Hg10 mi
12:30 PMN/ASunny.12 mphN/A29.86 "Hg10 mi
12:00 PM93 °FSunny.15 mph36%29.89 "Hg10 mi
11:30 AMN/ASunny.18 mphN/A29.89 "Hg10 mi
11:00 AM91 °FSunny.21 mph41%29.89 "Hg10 mi
10:30 AMN/ASunny.15 mphN/A29.89 "Hg10 mi
10:00 AM90 °FSunny.16 mph41%29.89 "Hg10 mi
9:30 AMN/ASunny.17 mphN/A29.89 "Hg10 mi
9:00 AM86 °FSunny.14 mph49%29.89 "Hg10 mi
8:30 AMN/ASunny.15 mphN/A29.89 "Hg10 mi
8:00 AM84 °FSunny.15 mph48%29.89 "Hg10 mi
7:30 AMN/ASunny.10 mphN/A29.89 "Hg10 mi
7:00 AM84 °FSunny.9 mph48%29.86 "Hg10 mi
6:30 AMN/AClear.8 mphN/A29.86 "Hg10 mi
6:00 AM86 °FClear.8 mph38%29.83 "Hg10 mi
5:30 AMN/AClear.8 mphN/A29.83 "Hg10 mi
5:00 AM88 °FClear.7 mph38%29.83 "Hg10 mi
4:30 AMN/AClear.6 mphN/A29.83 "Hg10 mi
4:00 AM88 °FClear.6 mph38%29.83 "Hg10 mi
3:30 AMN/AClear.3 mphN/A29.83 "Hg10 mi
3:00 AM90 °FClear.3 mph36%29.83 "Hg10 mi
2:30 AMN/AClear.3 mphN/A29.83 "Hg10 mi
2:00 AM91 °FClear.7 mph30%29.86 "Hg10 mi
1:30 AMN/AClear.2 mphN/A29.86 "Hg10 mi
1:00 AM91 °FClear.3 mph32%29.86 "Hg10 mi
12:30 AMN/AClear.6 mphN/A29.86 "Hg10 mi
11:30 PM
Sun, Aug 2
N/AClear.3 mphN/A29.89 "Hg10 mi
11:00 PM93 °FExtremely hot.5 mph32%29.89 "Hg5 mi
10:30 PMN/A5 mphN/A29.89 "Hg5 mi
10:00 PM93 °FExtremely hot.3 mph30%29.86 "Hg5 mi
9:30 PMN/AClear.6 mphN/A29.83 "Hg10 mi
9:00 PM97 °FClear.6 mph22%29.83 "Hg10 mi
8:30 PMN/AClear.6 mphN/A29.83 "Hg10 mi
8:00 PM97 °FClear.6 mph22%29.83 "Hg10 mi
7:30 PMN/AClear.6 mphN/A29.80 "Hg10 mi
7:00 PM99 °FSunny.8 mph21%29.80 "Hg10 mi
Weather by CustomWeather, © 2015

See weather overviewHow to use our weather pages